Theta_e
305 306 308 308 308 309 310 310 309 311 312 312 311 309 308 308 307 305 304 303 302 301 300 299 299 298 297 296 296 296 295 292 291 292 291 289 289 288 289 290 289 287 287 288 287 288 288 287 287 287 286 289 290 288 288 289 288 291 292 293 293 293 294 292 289 288 291 293 292 292 292 292 291 290 290 291 291 292 293 293 293 294 294 294 295
307 307 308 310 310 310 310 309 308 308 308 308 307 306 305 304 302 301 299 297 299 299 297 297 297 297 296 295 293 293 292 291 289 291 290 290 288 290 288 288 288 286 287 286 287 287 288 288 287 286 286 287 288 286 285 286 288 289 290 291 292 291 292 290 289 288 286 289 289 291 290 292 289 291 289 289 290 291 291 291 292 292 292 293 293
307 309 310 309 308 307 307 306 306 305 304 302 301 301 300 299 299 299 297 295 295 296 295 295 295 295 293 292 291 290 290 289 289 289 289 290 288 286 286 286 286 287 287 286 286 286 287 286 285 284 285 285 285 284 284 285 286 287 286 287 288 288 288 289 289 287 287 287 289 289 289 289 288 289 289 290 290 290 289 289 290 291 291 292 292
307 308 307 305 304 303 302 301 301 301 300 299 298 297 297 297 297 296 295 295 294 293 294 294 293 292 290 289 289 289 288 288 287 287 287 286 285 285 285 284 285 286 286 285 286 286 285 284 284 284 284 284 285 284 284 284 284 284 284 284 284 285 285 287 288 288 287 285 287 287 288 287 287 289 289 289 289 288 289 289 290 289 290 290 291
303 302 302 300 299 300 299 299 298 297 296 296 295 295 295 295 295 295 294 293 293 292 291 291 291 291 290 290 289 288 287 289 289 286 285 285 285 284 284 284 284 284 284 284 284 284 284 283 283 284 284 284 284 284 284 284 284 283 283 284 284 284 284 285 285 287 286 285 285 287 287 287 287 287 287 287 287 288 288 288 288 288 289 289 290
299 299 299 298 297 297 296 296 296 295 294 294 294 294 294 294 293 293 294 292 290 290 290 288 289 288 288 288 287 287 287 286 285 284 284 285 285 284 283 283 283 284 284 284 284 283 283 283 284 284 284 283 283 283 284 284 284 283 283 284 283 283 283 283 285 285 286 285 285 284 285 285 285 286 287 287 287 286 286 287 287 287 288 287 288
298 297 296 296 296 295 295 294 294 293 293 293 293 293 292 292 292 291 290 290 289 288 288 287 287 287 287 287 286 286 286 286 286 285 285 285 285 285 284 284 284 283 284 284 283 283 283 284 284 284 284 284 283 283 283 283 283 283 283 283 283 282 283 284 285 285 285 284 284 284 284 285 285 284 286 287 286 285 284 284 284 285 286 285 285
296 295 295 294 294 293 292 292 292 292 292 292 291 291 290 290 289 288 288 288 288 287 287 286 285 285 285 285 285 285 285 285 285 284 284 284 284 284 283 283 283 283 283 283 283 283 284 284 284 284 284 283 283 283 283 283 283 282 283 282 283 282 283 284 284 284 283 283 283 283 284 284 284 284 284 284 283 283 284 283 282 282 283 284 284
295 294 293 292 291 291 291 291 291 291 291 291 290 290 289 288 287 287 286 286 286 285 285 285 285 284 285 285 285 285 286 285 284 284 284 284 283 284 284 283 283 282 282 283 283 284 283 283 283 283 283 284 286 286 286 286 283 282 282 283 283 283 283 283 283 283 283 282 282 283 282 281 281 281 281 281 281 281 282 283 282 283 283 283 284
294 293 292 291 290 290 290 290 290 290 290 289 288 287 287 286 286 285 285 284 284 284 284 284 284 284 284 284 284 285 285 286 287 289 287 284 283 283 283 283 283 283 283 283 283 283 283 282 283 284 284 284 284 285 285 285 285 284 282 283 283 283 282 282 282 282 282 280 281 281 280 280 280 280 280 281 282 282 281 281 281 282 283 283 284
293 292 291 290 289 289 290 289 289 289 288 287 285 285 285 285 284 284 283 283 283 283 283 283 283 283 283 284 284 285 286 287 290 290 289 288 284 283 283 283 283 283 282 282 281 282 282 281 281 282 282 283 282 283 284 284 285 285 285 285 285 283 282 281 281 282 281 280 281 280 280 280 281 282 281 281 281 281 281 282 282 283 282 281 280
291 290 289 288 289 289 288 288 287 286 285 284 284 284 283 283 283 283 282 282 282 282 282 282 282 282 283 283 284 285 286 289 289 289 288 288 286 283 283 282 282 282 281 281 281 281 280 280 281 281 281 282 281 280 281 284 284 285 285 285 285 285 285 283 282 281 281 280 280 280 280 280 281 281 281 281 282 282 283 283 283 282 282 281 281
289 288 287 288 287 287 286 285 284 283 283 283 283 283 282 282 282 282 281 281 282 282 282 282 281 282 283 283 283 284 285 289 288 288 287 287 286 284 282 281 281 281 281 281 280 279 279 280 280 281 280 281 280 280 281 282 284 285 285 284 284 285 285 285 285 284 283 281 281 280 281 281 281 281 283 283 284 282 283 282 283 283 283 282 282
286 286 285 285 285 284 284 283 283 282 282 282 282 282 282 281 281 281 281 281 281 281 281 281 281 281 282 283 283 283 284 288 288 287 287 286 285 284 280 281 281 281 280 278 278 279 279 279 279 278 279 278 278 280 282 283 283 283 283 283 283 284 284 285 285 285 285 283 282 281 282 283 282 282 284 285 283 282 282 282 283 283 283 282 283
284 284 283 283 283 283 283 282 282 281 281 281 281 281 281 281 281 281 281 281 281 281 281 281 281 281 281 281 282 282 284 287 287 286 286 285 284 283 281 281 280 278 278 279 279 279 279 279 278 277 277 278 279 282 283 283 283 283 282 282 282 282 282 282 282 283 283 283 283 283 283 283 283 284 285 285 285 285 285 284 284 283 283 284 284
283 283 283 282 282 282 282 282 281 281 280 280 280 280 280 280 280 280 280 280 280 280 280 280 280 279 279 279 280 281 284 287 286 285 284 284 283 281 280 278 278 279 279 280 280 279 278 278 277 277 277 278 281 284 285 284 283 282 281 282 282 282 281 283 285 285 285 285 284 284 284 285 286 286 286 286 285 285 285 285 284 284 282 281 280
283 282 282 282 282 282 282 281 281 280 280 280 280 280 280 279 280 280 280 280 279 279 279 278 278 278 278 278 279 280 282 285 285 285 284 283 281 279 278 278 279 279 279 279 278 278 278 278 277 277 278 279 282 285 286 285 282 282 282 281 281 279 280 282 284 285 285 286 286 286 286 287 287 287 288 288 286 286 284 283 282 282 280 278 278
282 282 282 281 281 281 281 281 281 280 280 280 280 279 279 279 279 279 280 279 278 278 278 278 277 277 277 277 278 279 281 283 284 284 284 283 280 278 278 278 278 278 277 278 278 278 278 279 279 279 279 280 284 285 285 284 282 281 281 279 278 278 280 281 281 281 283 283 284 284 285 285 286 286 287 287 286 285 282 279 281 281 279 279 277
281 281 281 281 281 281 280 280 280 280 279 279 279 278 278 278 277 278 278 278 278 278 277 277 276 276 276 277 279 279 280 281 283 283 283 282 280 278 277 277 277 277 277 277 278 277 277 278 279 280 281 282 284 285 285 283 281 280 278 277 277 277 278 279 278 278 278 278 280 281 282 284 284 283 284 285 285 284 283 282 282 280 278 278 278
281 280 280 280 279 279 279 279 278 279 278 277 277 278 277 277 277 277 277 278 277 277 276 276 275 276 277 278 278 278 278 279 281 283 283 282 281 278 277 277 276 276 277 276 275 276 277 276 278 281 283 283 284 284 283 283 280 279 278 277 277 276 278 277 278 278 278 279 279 281 281 282 281 282 282 282 282 283 283 283 282 281 280 279 279
279 279 278 278 277 277 276 277 277 277 277 277 277 276 276 277 277 277 276 276 276 276 275 276 276 276 277 277 277 277 277 276 279 282 282 282 282 279 277 278 277 276 276 276 276 276 276 277 277 280 282 283 283 282 282 282 281 278 278 277 277 278 278 275 276 277 277 278 279 279 279 279 280 280 280 280 281 282 282 282 282 282 281 279 278
277 276 276 276 275 275 275 274 275 276 275 276 276 275 274 275 276 276 276 276 275 275 275 276 276 276 276 276 276 275 276 278 277 280 281 281 281 281 278 279 279 277 276 275 275 275 276 276 276 279 281 281 281 281 281 280 279 277 277 279 279 278 275 274 275 275 275 277 277 277 277 278 277 277 278 279 279 280 280 281 282 282 281 281 279
275 275 274 274 273 273 273 274 274 275 275 275 275 275 274 274 274 274 275 275 275 275 275 275 275 275 275 275 275 275 276 276 278 277 280 280 281 281 280 279 279 277 275 272 275 275 276 276 277 279 280 280 280 280 279 279 277 277 278 278 277 277 274 272 273 273 274 275 275 275 276 276 275 275 277 277 278 279 279 280 280 281 280 281 281
274 273 273 273 272 272 272 272 273 273 274 274 274 274 274 273 273 274 275 276 276 275 275 274 274 273 273 273 274 274 275 275 277 277 278 279 280 280 279 280 279 276 275 274 274 274 273 275 276 279 278 279 279 278 277 277 276 277 277 276 275 273 271 270 270 271 272 273 272 273 273 274 274 275 276 277 277 278 278 279 279 279 279 280 281
273 272 272 272 272 271 271 271 271 271 272 273 274 274 273 274 274 275 275 275 275 274 273 273 272 272 272 272 272 273 274 274 275 276 277 277 278 278 278 278 278 277 273 273 274 272 276 277 277 276 277 277 276 275 274 274 275 275 275 274 271 268 269 269 269 270 269 270 270 271 271 273 275 276 276 277 277 278 278 277 278 278 280 280 280
272 272 271 271 271 271 271 270 270 270 271 271 272 274 274 274 274 274 274 274 274 273 272 271 271 271 271 270 271 272 273 273 274 275 276 276 276 276 276 277 276 276 275 273 274 275 275 275 275 274 274 274 272 270 269 270 273 273 272 270 267 267 268 268 268 268 267 268 268 269 270 272 273 273 275 276 276 275 276 276 276 276 277 277 277
272 271 271 270 270 271 271 271 271 270 270 271 271 272 274 274 274 273 273 273 272 272 271 271 271 271 270 270 271 272 273 273 273 273 274 274 273 273 273 273 275 275 273 270 269 267 270 271 271 272 271 273 272 271 271 270 268 268 266 266 266 267 268 268 268 267 267 267 267 269 271 271 271 272 272 273 273 274 275 275 275 275 276 276 276
271 271 270 270 271 271 272 272 272 271 271 271 272 272 273 274 273 272 272 273 272 271 271 271 271 270 270 270 270 271 271 272 273 273 273 274 273 273 273 273 272 272 271 266 262 265 264 269 267 265 265 265 265 263 264 265 266 266 265 265 265 266 268 269 268 267 267 267 268 270 270 269 268 269 270 271 271 273 274 274 274 274 275 275 274
270 270 270 270 270 271 271 271 271 271 271 271 271 272 272 272 273 272 272 271 271 272 271 270 270 268 269 270 270 270 271 271 273 276 275 276 274 272 272 272 272 270 272 271 264 263 263 262 263 263 263 263 263 263 263 263 264 264 264 264 264 265 266 266 265 265 265 266 266 267 267 267 267 268 268 268 269 270 273 273 274 274 274 275 274
270 269 269 270 270 270 270 271 271 271 271 270 270 270 272 273 273 272 271 273 274 274 274 267 268 268 269 270 271 271 271 273 276 277 277 276 276 276 276 275 274 270 272 271 266 260 261 260 261 261 261 261 262 262 263 263 263 262 263 265 264 263 265 265 264 264 265 265 266 266 266 266 266 266 266 267 268 269 271 272 272 274 273 273 272
270 269 269 270 270 270 271 271 271 271 272 271 271 271 272 274 276 276 275 276 277 276 276 276 276 274 271 271 274 276 276 277 277 276 276 275 275 276 275 274 273 273 271 263 261 260 259 259 259 260 261 260 261 261 262 262 262 261 261 262 262 263 264 264 264 264 264 265 265 265 265 265 264 265 265 266 266 267 268 271 273 273 272 272 272
270 270 270 270 270 270 271 271 271 271 271 272 272 272 272 272 274 277 278 278 278 278 277 277 277 276 276 275 274 274 276 276 276 276 275 275 275 275 274 273 273 272 271 269 260 259 258 257 257 258 259 258 259 260 261 260 260 260 260 260 260 261 262 262 263 263 264 264 264 264 263 263 264 264 264 265 266 266 266 268 270 271 272 272 272
271 270 270 270 270 269 270 270 270 271 271 271 271 272 272 272 271 272 275 278 278 278 278 277 277 277 276 276 276 275 275 276 276 275 274 274 274 274 274 273 271 271 269 260 258 258 257 256 256 257 258 257 257 257 258 258 259 260 260 259 259 260 261 262 263 263 263 264 263 262 263 263 263 263 264 264 264 264 265 266 269 271 272 271 272
270 271 270 269 269 269 269 270 270 271 271 271 272 272 272 273 273 273 271 272 273 275 277 278 277 276 276 276 275 275 276 275 275 274 274 273 273 273 272 270 271 270 265 257 257 256 255 255 256 256 256 257 257 258 258 258 258 259 259 258 259 260 260 261 261 261 262 263 261 261 262 262 262 261 262 262 263 264 264 266 268 270 270 270 271
268 268 268 269 270 270 270 270 271 271 271 271 271 270 270 271 271 271 271 270 269 269 270 272 275 276 274 275 276 276 275 275 274 274 273 273 272 272 269 260 257 257 257 255 256 254 255 256 254 256 255 255 255 257 256 255 256 256 256 257 258 258 259 259 260 262 262 261 261 261 261 261 260 261 261 261 261 262 263 264 267 269 270 270 271
268 269 269 269 270 270 270 270 270 270 271 271 271 270 269 269 269 270 269 268 268 267 265 267 267 273 274 274 275 275 275 274 274 273 272 272 271 269 257 254 254 254 255 254 254 255 255 253 254 253 253 254 254 254 253 254 254 254 255 256 257 257 257 258 259 261 261 261 260 261 260 259 259 260 260 260 261 261 262 264 266 268 269 270 270
268 269 269 269 270 270 270 270 270 270 270 268 268 267 266 265 264 264 265 265 264 263 265 264 262 262 269 265 269 274 274 273 273 272 271 270 270 262 255 254 254 254 254 253 254 254 253 252 253 252 252 253 253 252 253 253 253 254 257 257 255 256 256 258 259 260 259 259 259 259 258 258 258 258 259 259 260 261 262 264 265 267 269 269 270
268 269 269 269 269 269 268 268 267 267 267 266 265 265 264 264 264 264 264 263 263 263 262 262 264 263 263 264 267 267 270 271 271 269 268 267 259 253 253 253 253 254 253 252 253 252 252 250 250 251 251 251 251 251 252 252 253 253 254 255 256 256 259 258 258 257 258 259 259 259 259 258 258 258 259 258 259 260 261 263 264 265 267 269 269
266 268 268 269 269 268 267 266 266 266 266 266 265 265 265 264 264 263 263 264 264 263 261 261 262 261 261 261 262 264 266 261 257 257 254 252 251 251 251 252 252 251 252 252 253 253 251 251 251 252 252 251 252 251 251 252 252 253 254 254 254 254 255 254 255 256 257 258 259 259 258 258 258 258 258 258 258 259 260 261 263 265 266 267 268
266 266 267 268 267 267 266 266 266 266 266 265 265 265 265 265 265 264 264 263 263 262 261 261 261 261 260 258 260 261 261 260 258 256 254 253 253 252 251 251 251 252 252 252 251 251 250 250 249 250 251 249 250 250 250 251 251 252 252 252 253 253 254 254 254 255 256 257 258 258 258 258 258 258 258 258 258 259 260 261 262 264 265 267 268
266 267 266 268 267 267 266 266 266 266 266 265 265 265 266 265 264 264 264 264 263 262 261 261 261 260 259 261 264 264 261 259 257 255 255 255 254 253 252 251 251 251 252 252 251 250 250 249 249 249 249 249 249 250 250 250 251 250 250 252 252 253 253 253 254 254 255 256 257 257 258 258 259 258 257 258 259 259 259 261 262 263 265 266 267
266 267 266 267 267 267 266 265 266 266 266 265 265 265 265 265 264 264 263 263 263 262 261 260 259 257 260 264 265 266 261 256 254 255 254 254 254 253 253 252 252 252 252 251 251 250 250 249 250 249 249 250 250 250 250 249 249 249 250 250 251 252 253 253 253 254 254 255 256 256 257 258 259 259 258 259 257 257 258 259 261 262 263 265 266
266 267 266 266 266 266 266 266 266 265 265 265 265 264 265 264 264 263 263 263 262 262 261 260 258 256 258 265 265 267 261 257 257 256 255 254 253 253 252 254 253 253 251 251 250 250 250 250 250 250 249 251 250 250 250 251 249 250 249 250 251 251 252 252 253 253 253 254 254 256 257 258 258 258 257 257 257 257 257 258 260 261 262 263 264
266 266 266 266 266 266 266 265 265 265 265 264 264 264 264 263 263 262 262 262 262 261 261 260 259 258 258 261 264 262 258 256 256 256 255 254 253 254 254 253 252 250 248 249 249 248 249 249 250 251 249 249 249 247 250 249 250 249 250 250 251 253 252 252 252 251 252 252 254 255 256 257 258 257 257 257 256 256 257 258 259 260 261 262 263
265 265 265 265 265 265 265 265 265 265 264 264 263 263 263 263 262 262 262 262 262 261 261 260 259 259 259 258 258 259 257 255 255 255 255 255 254 254 254 251 249 250 249 249 249 247 247 250 249 249 250 251 249 250 250 250 249 250 250 251 250 251 252 252 252 251 252 252 254 254 255 256 257 257 257 257 257 257 256 257 258 259 260 260 261
265 265 265 265 265 265 264 264 264 264 264 263 263 263 263 262 262 262 262 262 262 261 260 260 259 259 259 259 258 257 256 255 256 256 254 254 255 254 251 250 250 249 248 249 248 247 249 249 249 249 251 251 251 250 250 248 250 250 250 250 251 252 252 252 251 252 252 252 252 253 255 256 257 258 258 257 256 256 256 257 257 258 259 259 260
264 264 265 265 265 265 265 264 264 263 264 264 263 263 263 262 262 262 261 261 261 260 260 259 258 258 259 258 258 258 257 257 257 256 256 256 253 253 251 250 250 249 249 249 247 250 249 250 250 250 250 250 250 250 250 250 248 250 249 251 251 251 251 251 251 251 251 252 253 254 255 256 257 257 257 256 255 255 256 256 256 257 257 258 259
263 264 265 265 265 265 265 264 263 263 263 263 263 263 263 262 262 261 261 261 260 260 260 259 258 259 258 258 258 258 257 257 257 256 256 255 254 253 252 250 251 251 249 248 247 248 248 248 249 249 249 250 250 250 250 250 249 249 248 250 250 250 251 253 251 251 252 253 254 255 256 257 257 257 257 256 254 254 254 255 255 256 257 258 259
263 263 264 264 264 265 265 264 263 263 262 263 263 262 262 262 261 261 260 260 260 260 260 259 258 258 258 258 258 258 257 257 256 256 256 255 254 253 252 251 251 251 249 249 249 248 249 248 249 249 249 249 249 249 250 250 250 250 249 249 251 253 254 254 254 253 254 255 256 256 257 257 257 257 256 255 254 253 253 254 254 255 257 258 258
263 263 264 264 264 264 265 264 264 263 263 263 262 262 262 261 260 260 260 260 260 259 260 260 260 259 258 258 257 257 257 256 257 257 256 255 254 252 252 252 251 250 250 250 249 248 247 246 247 248 248 248 249 249 249 249 249 250 249 250 253 253 254 254 255 256 256 256 257 257 257 257 257 257 255 253 251 251 252 253 254 256 256 255 256
262 262 263 264 264 264 264 263 263 263 263 262 262 261 260 260 260 260 260 259 259 259 259 259 259 259 258 258 258 257 257 257 257 257 256 255 254 253 252 252 251 250 250 250 250 249 247 248 247 248 248 249 249 249 249 249 249 249 251 253 254 255 255 256 256 257 258 258 258 258 258 257 257 256 255 253 251 250 253 254 254 254 254 254 254
Wind_Speed
5 5 6 6 7 6 6 6 6 6 7 7 8 7 7 7 7 7 7 6 6 7 7 6 7 7 8 7 7 7 8 7 5 6 7 7 6 6 6 7 8 4 4 5 4 5 5 4 4 4 4 4 3 3 3 3 3 3 3 3 4 3 5 8 12 17 18 8 6 11 8 9 11 6 12 13 11 9 11 10 10 11 11 11 12
6 6 6 7 7 8 7 6 7 7 8 8 8 7 7 7 8 7 8 4 5 8 8 7 7 8 8 8 7 8 7 7 5 6 7 8 6 5 6 6 6 4 5 6 5 4 4 5 4 4 3 3 2 3 3 4 4 4 4 4 5 5 4 8 9 12 17 18 11 7 7 5 12 10 10 13 16 14 13 11 9 10 11 11 12
6 7 7 8 8 8 8 8 8 8 9 7 8 7 7 7 6 9 8 7 5 6 8 8 8 9 9 8 8 8 8 7 5 7 7 7 7 6 6 7 7 6 6 5 4 3 4 3 3 3 3 3 3 4 4 5 4 5 5 4 5 5 5 5 8 12 16 17 15 11 9 9 8 12 11 10 12 13 15 13 12 11 10 10 11
6 7 8 8 8 8 8 7 9 8 9 6 8 6 6 6 6 9 8 7 8 6 7 8 9 9 9 8 8 7 7 7 6 6 8 8 9 8 6 7 6 5 5 4 3 3 3 4 4 4 3 4 6 6 6 5 5 4 4 5 4 5 5 5 6 9 11 16 17 12 10 13 10 8 10 11 10 12 12 14 11 11 12 11 10
7 6 8 8 6 7 7 6 8 7 8 7 8 7 7 7 7 9 8 8 8 9 7 7 9 8 9 8 8 7 6 6 8 8 7 7 8 7 7 7 6 5 5 4 3 4 4 4 3 3 5 7 6 6 5 6 5 4 4 4 5 5 5 5 6 7 10 14 15 12 10 8 7 8 7 14 15 12 12 12 11 13 12 11 9
6 7 7 8 6 7 7 7 8 8 8 8 8 7 7 8 8 6 9 10 8 7 8 7 8 9 8 7 7 7 7 7 8 9 8 7 7 7 6 6 5 4 4 4 4 4 3 3 4 5 6 5 5 5 5 5 5 5 5 5 5 5 5 5 6 7 9 11 12 16 15 14 13 10 8 8 12 16 16 16 11 7 10 13 11
5 6 5 7 7 6 7 7 7 7 7 8 7 7 7 8 9 8 7 9 9 8 8 9 6 8 7 7 8 8 8 7 7 6 6 6 6 6 5 5 5 5 5 5 4 3 3 5 5 5 5 5 4 5 5 5 5 5 5 5 5 6 7 7 7 9 9 11 11 9 12 10 8 13 11 11 11 10 13 15 19 15 11 12 14
6 6 7 6 6 6 6 7 7 7 7 8 8 8 8 9 9 8 8 9 9 8 9 10 8 8 8 8 7 7 7 7 6 6 6 5 6 5 5 5 6 5 4 3 3 4 5 5 5 4 4 4 4 4 4 5 4 4 5 5 6 7 7 8 8 8 9 10 9 10 10 12 11 8 9 9 10 9 7 10 15 17 17 17 14
8 8 7 8 7 7 7 6 7 8 8 9 9 9 9 8 8 8 9 8 8 8 8 9 11 10 8 8 8 6 7 6 5 5 6 6 5 6 5 5 4 4 4 4 5 5 5 5 4 4 4 6 7 7 7 8 5 5 5 5 6 7 8 7 7 8 9 10 10 8 10 11 9 10 11 10 11 13 12 11 12 13 14 13 16
9 8 8 8 7 7 7 7 7 8 8 9 9 9 9 8 9 9 9 8 8 8 8 8 9 10 10 8 7 7 7 5 8 11 8 6 5 5 5 4 4 4 5 5 5 5 4 3 3 6 6 6 6 9 10 10 10 7 6 6 7 8 8 8 8 7 9 12 10 10 12 13 13 11 11 12 12 12 12 11 12 14 13 13 15
7 8 8 7 7 7 7 7 7 8 7 8 7 9 9 9 9 9 9 8 9 8 9 10 8 8 8 8 8 7 6 6 12 12 13 10 6 5 5 5 5 6 5 5 4 4 3 3 2 3 3 5 4 7 9 10 11 12 14 13 11 10 9 11 10 8 9 11 11 10 9 14 14 13 11 11 11 11 12 12 12 12 13 15 17
6 7 8 8 8 8 8 8 8 7 7 7 7 7 8 9 9 9 9 9 8 8 9 8 8 7 8 8 8 7 7 10 13 13 12 12 8 5 5 6 5 5 4 3 2 2 3 3 3 3 3 6 5 4 7 12 12 13 14 14 14 14 13 10 11 11 11 11 12 10 11 11 13 11 11 10 12 14 14 13 13 13 13 13 13
7 7 7 8 8 8 8 8 8 8 7 7 7 7 8 9 10 10 10 8 8 9 8 9 8 7 8 9 8 7 6 10 12 13 12 12 12 8 6 5 5 4 3 2 2 2 3 3 3 4 4 8 6 5 5 6 8 12 12 14 13 13 14 15 14 11 10 11 12 13 11 11 13 12 11 13 14 14 15 13 12 11 12 13 13
7 7 6 6 8 8 9 9 9 8 7 7 7 7 8 8 8 8 9 8 10 9 8 9 8 7 7 8 8 6 6 10 12 13 12 12 11 8 4 4 4 3 3 2 3 3 4 4 5 5 5 6 5 6 7 7 7 7 7 7 7 8 11 13 14 16 13 11 11 13 13 11 12 14 14 14 14 14 12 14 13 15 15 15 16
7 7 7 6 7 9 10 10 10 9 8 8 8 8 8 8 9 7 8 9 10 10 10 9 8 7 7 7 8 7 6 12 13 13 12 11 11 7 4 4 3 3 2 2 2 3 3 3 3 4 5 6 6 11 10 9 8 8 8 8 8 7 6 7 7 7 8 9 11 12 14 12 13 14 13 10 11 11 12 14 15 14 15 15 14
8 7 8 8 8 9 11 11 11 10 10 9 9 9 8 9 10 8 8 7 6 8 6 7 9 8 7 7 8 8 7 13 12 12 12 10 9 4 3 3 3 2 2 2 2 2 2 3 3 4 4 5 9 17 15 11 9 9 9 8 7 7 6 7 13 14 12 11 11 12 12 15 20 17 16 15 14 12 13 12 11 10 11 12 13
9 9 9 9 9 10 11 13 12 11 10 10 10 9 9 8 7 6 9 8 8 8 7 7 6 7 7 6 8 7 6 10 12 11 11 10 5 3 2 2 3 3 3 2 2 3 3 4 4 4 5 6 11 18 18 17 8 10 10 10 8 8 9 7 10 17 20 22 23 24 25 25 24 25 25 27 19 16 12 12 12 12 14 15 15
9 9 9 9 9 9 10 12 13 11 10 11 10 7 6 5 6 5 9 10 9 8 8 8 6 5 6 6 6 7 7 9 11 10 10 10 6 2 2 2 3 3 3 2 3 3 5 8 8 5 6 7 15 18 18 13 9 9 10 11 12 10 9 9 9 10 15 17 19 20 21 22 23 24 23 23 24 19 12 13 12 11 12 10 15
11 11 10 8 7 8 8 9 10 10 10 8 8 9 8 7 6 6 6 8 9 7 7 8 7 6 5 6 6 7 6 7 10 10 10 9 5 2 2 2 3 4 4 4 4 4 4 5 11 10 9 11 17 16 18 14 8 9 9 10 11 11 9 11 11 12 12 11 10 11 11 13 12 12 13 22 23 19 12 11 11 12 13 12 13
8 6 6 6 5 6 6 7 7 9 10 9 7 8 7 8 8 8 7 7 9 7 7 7 9 6 5 5 5 5 6 5 6 9 9 10 9 4 2 3 5 5 5 4 4 4 4 4 6 9 15 15 15 16 16 17 10 8 9 9 11 12 12 13 13 12 11 10 11 10 10 10 11 10 10 11 12 11 12 11 10 10 11 12 12
7 7 6 6 5 6 5 6 9 7 8 10 8 7 7 9 9 9 9 7 8 8 8 7 8 7 5 4 5 5 3 3 5 9 9 10 10 7 2 5 5 4 3 4 4 4 5 5 5 9 14 14 14 15 14 15 14 8 9 9 11 15 17 12 15 18 12 12 11 9 9 9 8 9 8 9 9 10 10 11 9 9 10 11 12
7 8 7 7 6 6 7 6 6 9 8 9 10 8 5 6 7 8 7 8 9 9 7 7 7 6 5 4 4 3 3 4 3 7 9 9 9 10 4 4 5 3 4 4 4 4 4 4 3 9 13 12 12 12 14 14 15 8 11 17 19 21 15 11 11 11 11 10 9 8 8 9 9 9 10 9 9 10 12 10 10 11 10 9 11
8 8 7 7 6 7 6 8 8 7 8 8 10 10 7 7 6 7 9 8 9 9 8 7 7 6 5 3 2 3 2 3 7 4 8 8 9 9 9 7 8 4 4 2 3 3 3 3 4 10 11 11 11 12 13 14 10 10 17 18 19 21 15 9 10 10 10 9 10 9 10 10 11 12 11 12 13 13 11 10 11 11 11 10 10
8 8 8 7 7 7 7 7 7 6 8 9 8 10 9 7 7 7 7 8 9 8 6 6 6 6 5 4 3 2 2 2 5 6 5 8 8 8 8 8 7 4 2 0 1 2 2 2 4 10 9 10 11 11 12 11 9 14 16 17 17 15 8 9 9 10 11 10 12 12 11 12 10 11 10 12 12 15 14 12 11 14 13 11 12
9 9 9 8 8 7 6 6 6 6 6 8 10 9 9 9 9 6 7 6 7 8 6 6 6 7 7 6 5 4 2 2 2 4 6 6 7 7 7 7 7 6 1 1 1 1 5 7 9 9 9 10 11 10 8 10 14 13 16 17 14 7 8 8 9 9 9 11 11 12 11 11 10 12 11 13 13 13 11 13 12 11 11 12 10
10 10 9 8 8 8 9 7 6 5 5 4 5 7 10 10 9 8 6 6 7 7 8 7 7 7 6 6 5 5 4 3 3 2 3 3 4 4 5 5 5 5 4 2 6 7 7 8 10 10 9 8 5 3 4 6 11 13 14 12 6 7 7 8 9 9 10 10 11 12 11 13 12 14 13 12 10 10 13 13 13 15 13 12 13
11 10 10 8 7 8 10 9 8 6 4 5 5 5 5 6 8 8 7 9 8 8 7 8 8 7 7 6 6 5 4 4 2 1 2 2 2 2 1 1 4 3 3 3 4 3 5 6 6 7 7 9 9 8 7 8 6 6 4 5 6 7 7 8 9 10 11 11 11 10 10 10 11 12 13 12 12 12 11 11 13 13 12 13 13
12 11 10 8 8 8 8 10 10 8 6 6 7 6 5 5 8 11 11 12 11 9 8 9 9 9 9 7 6 5 5 4 3 3 3 4 3 3 1 2 2 1 1 4 3 2 3 5 5 2 2 3 4 3 3 4 5 6 6 5 6 7 9 11 10 7 8 8 9 10 10 10 11 11 11 10 12 11 11 12 11 12 11 14 12
8 8 8 8 8 7 7 8 8 8 7 6 3 2 6 7 7 3 0 0 1 8 10 8 7 6 8 10 9 6 5 4 5 6 4 5 5 3 2 3 3 0 2 7 4 1 2 3 4 5 5 6 5 5 5 5 5 6 6 7 7 7 7 7 7 8 8 9 10 10 10 11 11 11 11 11 10 12 11 10 9 11 12 10 10
9 9 8 8 8 8 7 7 7 7 8 9 9 6 4 4 2 4 4 4 5 4 5 4 6 7 7 5 5 6 7 6 9 10 7 6 6 6 6 6 5 4 6 9 6 5 5 5 5 5 5 5 5 5 5 5 5 6 6 8 8 7 7 7 7 7 9 9 9 9 11 10 11 12 12 12 11 10 12 13 12 11 11 10 11
9 9 9 9 10 9 8 8 7 7 7 8 8 8 7 5 6 7 7 7 8 9 8 9 12 9 7 6 6 8 9 11 10 9 8 7 8 8 7 6 6 6 6 5 5 5 4 5 4 4 4 3 3 3 4 5 5 6 6 6 5 6 7 7 6 8 9 8 9 9 9 10 11 12 12 13 14 14 11 11 10 10 10 11 13
12 11 10 9 10 9 8 9 9 9 8 7 8 9 8 8 6 7 10 9 10 9 9 11 11 12 11 9 7 5 9 11 11 10 9 8 8 9 8 7 6 6 5 7 6 4 3 4 3 3 3 2 2 3 3 3 4 5 6 6 6 5 6 6 8 8 8 7 8 9 9 9 10 11 12 13 13 13 13 14 12 10 10 9 11
10 11 10 10 10 10 9 9 10 9 11 11 9 9 10 11 13 10 7 9 10 9 10 11 12 12 12 12 11 8 9 10 11 10 9 9 9 9 9 8 7 7 8 6 6 5 2 2 2 1 0 0 1 1 2 3 4 5 5 5 6 6 6 6 9 8 7 8 8 8 9 9 10 11 12 12 12 13 14 14 12 10 10 11 9
7 9 11 12 12 10 11 12 12 11 9 10 10 11 10 10 11 12 11 9 6 6 9 12 12 13 13 13 13 12 12 12 12 11 10 9 10 10 9 6 8 8 7 5 6 4 3 2 1 1 0 0 1 1 2 3 3 4 4 5 5 6 6 6 6 7 6 7 7 7 8 8 10 10 11 11 11 11 12 12 12 12 10 10 11
6 7 9 9 10 13 14 14 13 10 10 11 10 10 10 8 9 11 12 13 12 11 9 8 11 13 9 10 13 14 13 13 12 11 10 10 10 10 8 5 3 3 3 2 3 3 3 1 2 1 1 1 1 1 1 2 3 3 3 5 5 5 6 6 6 7 7 7 7 7 8 9 9 9 10 12 12 11 11 12 12 12 10 11 10
8 8 9 10 9 8 9 12 10 10 11 10 9 8 7 8 9 8 7 7 8 9 6 5 4 8 14 12 14 13 13 13 12 11 11 11 12 11 5 3 4 3 3 2 2 2 3 3 1 1 1 2 1 1 2 2 3 3 4 4 5 6 6 7 7 7 7 7 7 8 8 7 8 9 9 10 11 12 11 12 13 13 12 10 10
9 8 9 11 9 10 10 10 10 8 5 5 7 7 7 7 6 6 7 8 8 7 8 7 4 2 6 3 5 13 14 12 12 11 10 9 8 4 4 6 7 6 5 4 3 3 3 2 3 3 3 2 2 3 3 3 4 4 4 5 5 6 5 6 7 8 8 7 7 6 6 8 8 8 9 11 11 11 11 12 13 14 14 16 16
9 9 9 9 9 10 10 10 8 7 6 7 6 7 8 8 8 8 9 9 9 10 10 9 7 10 10 10 6 5 9 11 10 7 7 7 5 3 4 5 4 7 5 5 4 4 4 4 4 4 4 3 4 4 4 5 4 4 5 5 5 5 10 9 9 8 7 7 7 6 7 7 7 8 9 9 10 11 12 13 12 13 13 14 12
7 7 9 9 7 9 10 8 9 10 9 8 8 9 10 9 9 9 9 8 9 9 9 9 10 10 9 8 8 6 7 6 7 8 6 5 4 4 5 5 4 5 4 6 4 4 4 5 5 3 4 4 5 4 4 5 4 5 5 5 5 5 6 5 6 6 7 7 7 7 7 7 7 8 8 8 9 10 11 12 13 13 13 13 11
8 7 8 10 7 8 7 8 9 8 9 9 9 8 7 9 11 11 9 10 10 10 10 11 11 11 8 8 9 8 9 9 8 8 8 7 7 6 6 7 7 7 7 7 5 6 5 6 5 5 5 4 5 5 4 5 5 5 5 6 5 5 5 5 5 6 7 7 7 7 7 7 7 7 7 7 8 9 11 12 12 13 12 12 12
7 7 7 9 8 7 7 8 9 11 9 9 9 9 10 9 8 7 9 10 9 9 10 10 9 8 8 10 13 14 10 9 8 7 8 8 7 7 7 7 7 7 6 6 7 6 6 6 6 7 6 6 5 4 4 4 5 5 6 6 6 5 5 5 5 6 7 7 7 7 7 6 7 7 8 8 10 10 10 11 11 12 13 12 12
6 7 8 8 9 9 9 10 9 9 9 8 10 11 10 9 9 9 9 10 9 9 9 8 7 6 8 15 15 17 9 5 5 7 6 6 6 7 7 7 6 6 6 7 7 7 7 6 6 6 7 6 5 4 4 5 5 6 6 6 5 5 5 5 5 5 6 6 7 7 7 7 8 8 9 10 8 8 10 10 11 11 11 12 12
9 8 8 7 9 10 10 10 8 9 9 10 10 7 7 8 8 8 9 8 9 9 8 8 7 5 7 11 13 15 7 6 5 6 5 6 6 6 6 7 6 6 6 6 6 6 7 6 6 6 6 6 5 5 5 6 5 6 5 5 5 5 6 6 5 5 5 6 7 8 9 7 7 7 7 7 7 8 8 10 10 10 11 12 12
8 7 7 8 8 7 6 7 9 9 9 8 7 7 8 8 7 7 8 8 8 7 7 7 6 6 6 7 8 8 6 6 6 6 6 6 6 6 6 6 6 6 6 6 6 6 6 6 6 6 4 4 5 3 5 5 5 5 6 6 6 6 6 6 6 5 5 5 7 8 8 8 7 6 7 8 7 8 9 10 11 11 10 11 12
7 8 8 6 8 8 7 8 8 7 6 6 8 8 8 9 9 9 9 9 8 7 7 7 7 8 7 7 7 7 6 6 6 6 6 6 6 6 6 6 6 6 6 6 6 5 5 6 6 5 5 5 3 5 5 5 5 6 6 6 6 7 7 7 6 5 5 5 7 7 8 8 7 6 7 7 7 8 9 10 10 11 12 11 11
9 10 8 9 8 8 8 10 7 7 8 9 9 8 8 8 8 9 8 8 7 9 8 7 8 8 8 8 7 7 7 5 6 6 6 6 6 6 6 6 6 6 6 7 6 5 6 6 6 6 6 6 5 5 6 5 5 5 5 5 7 8 7 6 5 5 6 5 6 6 8 8 8 7 9 7 6 7 8 9 9 9 9 11 11
8 11 11 9 11 10 8 9 8 10 10 10 10 11 10 11 10 9 8 9 8 7 9 8 8 9 9 9 9 9 8 7 7 7 7 7 6 7 6 6 6 6 7 6 5 6 6 6 6 6 6 6 5 6 5 5 4 5 4 6 6 7 6 6 6 6 6 6 6 7 8 8 8 7 8 7 6 7 8 9 9 10 10 10 10
10 10 10 10 9 10 11 11 12 12 12 11 10 9 8 8 10 10 8 9 11 8 9 9 9 8 6 7 7 7 7 7 6 6 6 6 6 6 6 5 6 6 5 6 5 5 6 6 6 6 6 6 6 6 6 5 5 5 5 5 6 6 7 7 6 7 6 6 7 8 8 8 8 8 7 6 6 6 7 8 8 9 9 9 9
9 9 9 10 10 10 9 11 9 10 15 11 9 9 8 9 10 10 10 11 12 10 10 11 11 9 8 8 7 7 6 6 6 6 6 6 6 6 6 5 5 5 6 6 6 5 6 6 6 6 7 6 6 6 6 5 6 5 5 5 6 10 12 13 9 6 9 8 8 8 8 8 8 8 7 6 6 5 6 7 8 9 9 8 9
7 10 11 10 10 11 9 8 11 9 8 10 12 11 9 9 10 10 12 10 10 11 12 11 10 10 10 8 6 7 7 7 7 7 6 6 6 5 6 5 6 5 6 6 5 5 6 5 6 6 6 6 6 6 6 6 5 6 5 6 8 12 13 14 15 15 11 7 8 8 7 8 8 7 6 5 5 5 6 7 7 8 8 9 9
9 10 10 11 10 9 8 10 13 13 12 11 12 12 12 12 13 12 12 14 16 14 12 11 9 8 9 9 6 7 7 7 6 6 6 6 6 6 6 6 6 5 5 6 6 6 5 6 6 6 6 6 6 6 6 5 5 6 8 12 14 14 15 14 10 12 15 12 7 7 8 8 7 7 7 5 5 5 8 8 8 7 7 7 8
Wind_Direction
131 128 126 124 126 128 126 125 120 120 117 120 120 119 115 113 106 115 103 94 109 108 109 108 105 101 94 86 90 91 88 81 77 92 87 81 69 80 79 81 84 72 77 60 49 50 40 36 9 358 7 12 342 328 317 311 327 328 319 309 301 298 305 303 295 295 296 287 282 303 329 334 315 342 321 315 309 306 304 302 298 300 301 301 301
128 126 122 121 118 114 108 106 112 110 110 111 113 115 117 116 122 110 100 89 103 110 105 108 102 98 96 93 88 87 87 85 83 94 99 92 73 71 81 89 95 85 69 53 35 42 46 43 18 354 1 6 329 328 334 344 355 348 335 327 315 313 305 306 297 298 297 307 306 298 305 340 313 328 322 320 319 318 313 310 306 304 305 304 301
124 124 120 114 112 113 114 116 116 115 111 113 112 114 112 111 113 108 105 100 77 96 109 103 101 97 93 93 91 89 85 88 87 98 100 102 106 96 85 85 81 76 66 58 48 39 49 43 15 6 360 9 6 360 9 4 357 350 329 325 314 299 295 283 295 294 299 298 303 313 324 328 323 322 324 318 309 310 311 314 312 307 298 293 293
120 116 113 112 118 117 115 119 116 117 115 115 111 107 105 102 105 101 102 104 100 82 90 101 98 99 99 95 91 97 97 99 94 87 105 120 102 91 84 83 80 78 77 73 62 59 52 36 17 8 359 19 14 9 5 1 350 341 325 314 304 295 292 285 278 290 297 302 307 319 327 323 325 324 319 307 308 310 308 305 301 294 297 295 294
110 111 116 112 108 108 105 105 105 102 107 110 110 108 108 105 95 104 102 91 96 100 84 91 98 96 100 102 101 99 108 110 99 90 79 77 83 84 78 75 75 79 89 84 71 64 46 39 2 7 21 25 8 5 353 349 337 331 321 311 306 294 289 286 283 287 294 298 303 309 316 309 309 315 325 323 319 313 304 301 303 306 304 301 300
113 113 114 115 111 111 113 110 111 115 114 113 114 113 110 106 102 89 107 105 95 93 101 87 97 99 100 104 106 103 95 87 81 74 71 75 78 76 75 78 84 81 70 59 50 48 45 24 21 25 24 25 359 348 346 337 330 327 321 315 311 306 302 297 296 295 291 293 300 309 316 321 323 319 327 320 318 318 319 315 306 297 307 311 313
113 112 109 114 118 118 120 118 119 120 120 119 116 109 104 104 103 104 102 110 111 106 100 100 94 103 103 99 92 92 86 82 83 84 86 84 87 87 83 81 75 65 58 53 43 39 37 30 24 20 17 10 356 339 331 326 325 322 316 320 318 321 321 318 314 305 301 303 300 294 303 306 314 316 330 331 311 306 314 321 320 323 319 310 310
119 117 119 113 114 116 115 116 117 119 116 110 108 106 104 101 104 109 109 105 109 113 114 109 104 96 95 91 89 88 89 85 83 85 84 88 89 84 82 77 72 64 60 51 45 35 30 26 19 10 6 349 344 326 331 325 329 330 324 332 331 331 327 322 317 313 307 304 303 311 308 311 316 307 309 313 311 307 318 316 310 315 316 312 307
127 125 123 125 127 124 118 112 118 114 114 113 110 110 109 109 108 105 102 103 102 106 108 110 108 97 87 89 88 82 83 84 88 91 91 84 81 82 79 78 80 82 67 51 37 32 21 17 9 356 349 346 349 348 350 353 348 342 334 337 332 330 322 316 309 306 305 306 304 304 308 308 304 315 321 324 323 314 315 312 299 300 302 301 302
133 132 129 129 128 126 121 120 122 121 117 117 119 118 115 113 110 106 102 104 105 106 103 97 97 102 100 89 83 81 79 79 89 91 89 93 85 82 81 78 77 68 62 51 34 28 14 360 347 338 346 2 3 359 358 357 354 346 334 338 334 330 324 318 316 315 315 314 313 319 315 309 311 316 312 310 308 306 306 308 302 304 300 293 291
134 133 129 128 125 121 119 120 120 117 116 115 118 117 117 114 109 106 105 104 105 103 100 96 92 93 97 98 91 82 78 78 82 82 80 79 82 86 88 76 63 56 54 48 34 15 356 350 341 343 1 3 358 353 356 355 351 348 345 344 341 335 329 324 319 320 316 311 309 309 304 304 305 310 308 309 307 304 302 302 299 304 308 313 312
129 127 128 129 127 126 123 120 114 112 111 112 113 112 112 111 108 108 108 104 99 99 95 99 100 101 99 94 88 86 83 82 84 84 83 82 81 82 76 71 66 61 56 49 42 19 354 352 348 359 3 356 349 345 348 352 346 346 343 340 335 330 323 317 316 316 316 311 306 302 304 300 302 308 308 309 306 304 303 301 301 302 304 301 300
128 130 140 137 133 129 128 123 119 115 113 112 112 113 113 110 112 114 111 114 111 106 110 107 105 101 101 100 93 86 86 87 88 87 84 82 74 67 70 72 72 70 58 59 43 26 7 359 354 354 356 352 347 340 328 328 332 333 329 326 321 315 316 316 311 303 299 295 296 296 296 300 298 299 304 301 301 301 303 302 304 301 299 295 296
133 138 141 140 134 131 127 124 121 119 118 116 116 115 114 114 114 115 117 116 113 114 112 110 110 104 103 102 98 91 88 94 92 86 82 79 76 68 70 73 73 71 65 43 36 22 8 9 359 354 350 348 338 334 334 327 326 319 316 312 303 296 301 296 291 289 282 279 281 284 290 291 291 294 297 298 302 302 306 306 307 305 305 299 297
135 142 144 146 141 136 131 129 128 129 126 124 122 122 123 124 123 128 127 129 129 128 128 119 112 108 103 101 101 98 95 99 95 89 86 86 85 78 68 80 78 68 56 36 39 16 7 8 2 353 341 342 335 346 337 331 326 319 312 308 302 298 293 292 284 281 278 274 273 276 286 290 289 293 294 297 294 300 304 300 299 298 294 293 290
147 149 152 160 155 149 140 137 137 137 136 135 134 136 138 140 136 135 121 110 104 106 97 103 112 109 106 105 103 98 99 100 98 96 93 92 94 81 90 99 107 93 55 52 34 12 8 7 2 354 342 336 330 343 341 336 324 317 315 310 309 308 299 296 299 301 296 289 282 285 291 301 307 308 311 313 314 310 303 297 295 294 302 308 307
160 162 163 166 164 158 150 144 144 145 145 142 142 144 141 136 128 129 118 117 116 109 110 105 107 111 110 106 102 98 95 99 98 97 97 98 99 109 120 138 123 87 53 41 33 21 12 8 1 352 335 332 331 342 340 342 328 323 321 322 323 320 310 301 308 316 317 316 314 313 312 313 314 314 315 315 316 319 315 310 314 325 319 315 314
166 165 168 170 167 161 154 148 146 147 147 146 142 134 124 116 125 134 128 127 115 115 115 105 96 99 106 104 100 104 99 95 94 93 95 98 102 119 128 119 99 84 67 34 38 29 15 10 1 350 344 330 340 343 344 344 335 333 333 332 327 324 323 333 328 323 325 322 318 317 316 316 316 316 315 320 325 329 323 316 318 315 309 307 310
172 170 167 166 164 158 150 145 143 142 139 135 135 135 135 132 124 110 110 112 115 118 114 112 108 94 90 96 91 94 90 88 91 89 89 92 91 96 102 96 84 53 38 30 28 32 11 3 1 355 352 343 345 348 349 351 347 348 344 332 329 331 335 337 334 331 330 328 323 321 311 314 321 324 323 323 323 320 310 308 312 310 309 309 306
158 144 144 151 151 143 137 132 132 135 133 128 127 128 129 125 130 125 120 123 123 119 114 110 109 102 95 90 82 79 87 78 87 88 81 75 75 73 68 68 56 42 30 27 14 14 17 356 340 338 352 349 352 354 355 357 360 356 345 341 337 337 339 335 333 328 321 320 317 315 318 325 320 315 315 317 313 306 314 307 303 301 300 305 305
138 136 132 135 136 130 124 133 133 129 132 134 129 127 136 136 135 134 131 124 117 112 109 107 103 100 90 83 81 71 70 72 83 83 74 71 69 69 47 62 62 45 35 27 24 13 2 354 336 339 351 356 360 1 2 4 5 1 349 351 346 339 340 334 332 334 325 321 315 321 323 316 319 322 318 317 314 321 314 309 299 298 303 309 308
128 129 133 134 133 130 129 123 125 131 132 132 131 128 125 126 131 133 126 125 119 113 112 110 106 99 92 83 80 84 69 83 65 75 75 70 68 68 67 60 63 59 47 35 24 13 354 335 307 345 358 4 7 9 12 10 6 1 354 353 349 349 349 336 329 328 322 320 320 322 324 330 332 327 322 319 324 319 316 312 315 315 311 306 305
127 127 128 134 138 138 136 137 138 138 140 142 137 133 134 127 123 125 127 122 120 120 120 120 114 108 102 91 85 84 78 67 85 66 73 71 67 63 67 65 61 64 68 27 18 350 309 318 331 360 10 12 16 21 18 12 6 1 359 357 355 352 348 335 329 324 326 329 331 332 337 341 337 331 329 334 328 324 323 323 321 318 314 306 296
125 128 136 141 143 144 143 138 136 139 141 137 133 133 134 131 126 132 132 133 135 129 128 128 124 127 132 128 119 101 82 60 80 81 71 70 65 66 66 66 69 79 73 154 270 288 299 337 3 17 18 22 25 25 19 13 7 4 1 359 356 351 339 335 337 341 339 340 342 339 338 336 330 325 333 331 325 324 321 323 325 324 316 309 307
135 141 149 152 150 146 136 136 136 133 140 142 140 138 135 143 135 139 138 136 137 136 133 143 145 146 144 144 134 127 118 92 65 79 78 68 67 65 66 70 69 77 77 266 356 341 25 30 31 27 27 28 31 28 19 10 8 6 3 0 356 342 345 343 346 344 344 345 338 332 328 329 326 328 322 318 314 316 321 323 322 311 307 304 297
149 154 155 154 152 145 133 124 122 126 130 131 134 146 149 153 147 146 146 145 146 144 135 142 149 151 149 144 141 136 125 129 124 110 101 87 79 67 74 78 78 71 77 50 39 38 39 43 41 35 26 32 34 30 25 11 7 7 5 360 348 348 346 349 348 349 345 337 331 327 322 325 332 327 320 317 318 329 328 326 326 328 329 325 322
151 154 155 150 147 147 142 141 139 133 126 119 115 129 141 140 148 151 155 147 143 139 153 159 159 158 152 153 150 151 149 144 137 219 198 147 124 102 102 89 80 82 83 79 56 37 44 54 55 48 42 39 42 31 31 15 7 7 359 354 353 354 353 358 352 345 338 330 323 315 322 327 322 322 331 334 330 328 329 323 323 323 324 324 320
159 159 157 154 154 154 149 148 146 145 145 146 145 143 149 158 162 165 167 169 161 169 170 170 170 165 159 155 149 148 150 151 177 208 196 151 153 136 159 133 124 119 108 107 95 77 72 69 64 58 52 40 35 28 21 17 7 8 360 356 359 354 354 354 348 338 326 316 303 313 319 325 326 325 325 330 327 323 326 326 323 320 324 324 321
151 151 152 150 154 156 153 155 153 146 142 132 109 113 149 159 166 139 357 358 231 171 169 169 170 166 156 157 154 153 163 183 180 167 171 153 155 162 214 175 143 183 128 126 112 121 107 79 56 39 32 28 16 17 6 4 5 5 358 357 0 355 351 353 348 342 331 325 327 327 324 322 321 322 323 319 324 326 322 319 316 316 319 318 320
151 160 160 159 157 154 153 151 148 145 145 130 123 96 78 95 104 136 153 167 160 159 156 164 166 153 145 154 159 160 170 170 168 160 153 146 150 151 144 130 129 143 125 113 118 90 64 71 48 43 32 23 18 9 4 353 350 356 357 358 354 352 347 346 337 331 328 324 321 325 324 324 319 323 321 319 317 322 324 323 316 321 323 326 325
159 159 167 174 171 162 157 156 158 151 148 148 140 134 132 134 140 141 146 154 156 155 158 140 143 145 145 147 167 165 160 158 161 157 155 155 150 149 134 123 117 120 132 114 54 66 60 58 49 43 40 25 16 359 354 351 350 348 349 348 344 344 340 335 328 327 323 323 326 325 325 323 320 321 320 320 321 321 321 316 311 321 326 325 322
168 175 175 169 165 169 165 162 158 157 158 155 154 149 144 139 136 159 163 166 163 161 154 153 157 161 164 160 157 156 164 165 162 161 159 155 153 143 130 120 115 105 95 101 90 73 79 85 69 51 44 29 356 346 343 344 347 344 338 337 338 340 333 328 328 318 311 318 324 329 326 325 323 323 320 320 321 320 321 320 321 323 323 322 322
175 171 172 168 170 168 166 167 169 167 163 163 166 166 159 157 152 150 161 163 162 162 163 166 170 170 167 166 166 168 168 167 164 165 161 157 152 142 131 117 105 97 85 68 105 109 99 95 95 70 61 92 306 325 337 347 348 334 328 326 323 324 320 315 318 306 310 320 327 324 324 325 325 323 322 321 324 322 320 316 314 315 321 321 320
183 175 174 174 170 176 178 173 169 175 176 174 172 172 175 171 164 157 151 148 161 173 179 175 174 176 178 179 179 180 174 167 169 167 160 160 154 143 126 107 90 81 101 126 119 126 129 126 144 188 218 264 291 340 339 336 330 318 312 309 306 306 310 313 308 305 307 319 324 319 323 323 326 323 322 323 319 314 311 312 315 321 326 327 325
175 182 184 182 188 180 161 168 175 172 174 178 178 179 176 175 167 166 166 168 169 170 170 177 180 177 176 177 181 178 171 171 171 166 163 160 156 145 117 79 65 15 46 75 118 137 146 173 182 227 222 239 268 300 298 292 291 301 302 305 302 306 311 312 307 307 315 321 320 321 323 324 322 323 324 322 321 319 315 313 314 319 320 323 324
184 182 185 186 189 178 180 185 182 179 180 183 179 174 169 168 176 175 161 154 159 155 159 175 163 178 180 182 182 177 174 174 172 169 169 166 159 142 110 148 145 165 152 175 166 187 162 194 170 230 230 244 250 267 269 272 277 285 290 295 305 309 310 305 308 313 320 317 313 318 321 319 322 322 320 316 316 316 315 313 316 319 321 321 328
189 190 190 187 191 172 180 185 192 189 173 162 161 166 167 174 162 156 160 165 165 171 167 159 141 212 187 223 211 183 177 172 171 169 167 169 171 148 160 171 170 169 174 193 186 188 187 224 198 204 226 224 248 248 254 270 275 282 293 299 295 301 298 299 308 318 315 311 311 315 320 319 322 324 324 320 319 318 315 316 316 317 320 327 330
200 197 193 182 178 175 172 180 177 170 169 166 172 171 173 176 178 173 172 174 176 171 172 182 183 181 181 193 196 197 172 167 155 138 147 135 107 116 149 160 166 169 194 202 198 191 203 227 210 204 234 223 233 247 247 262 270 275 277 285 293 287 303 307 310 307 305 304 309 317 320 320 322 321 321 318 316 317 319 317 316 316 320 323 324
206 197 186 174 178 176 173 171 162 167 175 181 182 181 183 178 177 179 183 177 179 182 183 181 187 192 195 176 174 186 156 159 172 188 190 185 174 172 172 182 184 202 201 205 216 208 205 220 229 219 219 220 229 235 232 250 260 264 268 275 280 288 295 301 305 307 306 304 310 313 316 316 317 317 315 314 313 317 316 316 316 317 320 322 324
191 193 184 172 180 181 181 182 178 182 189 181 187 187 185 189 191 187 179 179 188 188 185 188 196 199 187 173 181 174 180 191 191 191 184 188 189 193 182 188 196 198 204 215 213 214 215 226 219 220 227 229 228 231 233 237 243 250 258 262 265 279 287 291 294 300 300 301 304 308 311 311 311 310 310 313 314 318 319 317 316 317 317 317 319
198 191 183 187 184 178 179 183 191 194 186 187 184 186 197 192 186 182 185 192 188 188 194 199 202 194 185 191 187 185 184 189 187 186 190 188 192 190 200 202 197 204 211 203 212 211 213 218 222 219 223 223 226 225 235 236 246 251 253 258 264 271 279 281 282 287 292 296 300 304 303 307 311 316 317 318 320 318 314 314 313 316 318 318 319
146 173 175 189 184 190 191 198 198 191 187 185 185 191 189 188 185 187 191 191 192 190 193 199 204 195 201 193 191 190 187 191 175 182 190 197 195 207 206 210 207 202 200 209 209 212 217 219 220 213 217 224 219 231 232 241 243 248 252 258 264 270 274 275 278 282 286 295 299 300 300 306 311 312 312 315 316 314 314 313 314 316 318 321 320
195 198 197 190 192 197 199 199 182 179 189 192 199 191 187 180 186 189 192 195 193 188 188 191 194 195 208 204 198 202 180 179 178 190 192 202 205 210 210 212 213 212 211 215 215 209 216 224 230 223 217 221 215 217 223 238 242 250 256 260 267 267 273 273 275 275 283 293 295 300 299 299 303 303 307 312 313 312 310 313 312 314 317 319 318
199 200 198 199 201 200 200 188 193 199 200 194 180 182 185 186 183 187 193 194 190 191 190 186 174 178 199 217 211 210 184 184 183 197 202 209 210 216 218 218 216 218 226 225 228 217 218 231 247 252 235 232 225 223 228 233 230 236 247 257 265 267 267 268 268 270 280 287 294 297 298 298 297 300 304 311 314 316 316 317 318 319 318 319 319
186 197 199 187 196 197 199 199 198 195 188 178 189 192 191 190 192 192 190 193 192 187 186 179 173 175 183 202 212 208 196 189 196 197 213 212 216 220 218 216 213 215 218 228 224 211 213 227 243 255 270 257 235 229 232 234 227 229 229 237 250 260 262 263 262 262 263 275 283 290 293 293 295 297 303 306 315 318 315 314 315 317 318 319 320
192 199 201 201 198 203 200 179 191 187 190 193 194 196 198 196 198 194 193 190 186 181 176 177 175 180 184 190 196 201 203 196 207 210 215 222 219 222 215 212 212 211 212 218 217 206 216 218 227 238 251 259 261 247 241 233 236 235 237 233 241 251 255 259 263 266 264 262 271 278 282 283 286 292 300 307 311 310 307 309 307 305 309 311 310
188 180 199 202 203 204 199 194 188 187 192 197 197 199 198 198 193 188 190 187 181 181 174 183 180 184 187 189 191 199 197 198 204 204 213 216 221 221 217 214 212 217 221 220 212 212 218 225 227 228 241 250 257 259 256 247 239 239 238 241 245 255 258 258 256 253 257 259 263 266 273 277 284 286 296 300 298 302 307 309 308 309 309 307 309
209 208 210 209 207 204 204 186 195 197 200 203 203 202 201 196 190 190 189 186 181 189 190 176 175 184 187 198 199 194 197 200 204 209 213 218 223 223 216 213 216 221 215 217 219 217 219 221 226 229 236 245 249 256 257 257 254 248 247 247 248 249 254 254 256 256 252 255 255 258 263 273 278 280 284 289 293 300 306 308 312 306 303 305 310
210 211 211 210 214 215 213 205 205 198 187 196 191 195 195 195 200 192 188 175 176 182 180 182 174 179 190 195 192 195 196 195 201 207 208 217 218 223 218 220 225 227 218 229 220 219 223 226 225 226 229 236 238 245 256 259 261 259 258 255 252 254 260 265 267 255 258 255 255 256 262 264 270 277 281 283 284 288 290 296 300 300 302 305 308
205 210 217 217 217 220 218 207 197 170 196 199 195 198 195 188 187 178 168 165 176 186 193 195 197 184 166 187 192 196 196 204 208 207 207 209 212 211 213 221 226 229 228 234 229 219 222 224 227 230 234 235 238 241 245 251 257 260 265 261 263 267 270 272 272 269 267 257 256 256 260 266 268 272 271 268 269 280 285 290 292 297 301 304 303
220 221 225 225 226 220 210 187 183 172 178 184 184 187 185 177 178 163 168 186 188 190 183 188 178 179 183 188 197 196 204 210 210 205 204 206 205 202 210 217 227 230 236 236 239 228 224 224 226 229 230 233 235 237 241 246 254 258 263 270 274 277 276 274 270 268 265 265 262 261 257 260 267 274 275 270 264 267 277 288 293 294 297 296 299